Погода в Засосна

Россия / Белгородская область     50°37′42″N   38°23′16″E
темп.,
°C
ветер,
м/с
пор.,
м/с
влажн.,
%
обл.,
%
осадки,
мм/ч
давл.,
гПа
погр.,
м
16 апреля, пт
пт1600:00+9ююз24865 0.1 101589
03:00+8ююв34884 0.1 101571
06:00+6ююв37902 0.0 1016166
09:00+11ю57653 0.0 1017812
12:00+14ю684612 0.0 10171909
15:00+14ююв5741100 0.0 10162196
18:00+13юз245061 0.0 1017814
21:00+9юз116522 0.0 101710
17 апреля, сб
сб1700:00+10юз116364 0.0 101713
03:00+8зюз3580100 0.4 1018186
06:00+7зсз1289100 3.9 1018172
09:00+8ююз1279100 4.3 1018355
12:00+12ююз565231 1.4 10181705
15:00+10юз666196 2.2 10191173
18:00+9юз556336 0.1 10191107
21:00+7ююз367699 0.1 1020203
18 апреля, вс
вс1800:00+7ююз4778100 0.1 1020356
03:00+7ююз368464 0.2 1020312
06:00+4ююз249019 0.0 1020101
09:00+9юз346780 0.0 1020567
12:00+12юз4658100 0.4 10191303
15:00+13ююз565182 1.0 10181602
18:00+11ю4659100 0.2 1019525
21:00+10юв3765100 0.2 1019200
19 апреля, пн
пн1900:00+9юв3667100 0.0 1018116
03:00+8юв3106899 0.0 1018207
06:00+8юв3671100 0.0 1018133
09:00+12юв475321 0.0 1017593
12:00+16юв564093 0.0 10162403
15:00+16вюв464199 0.0 10152124
18:00+14вюв485792 0.0 1014866
21:00+10в51085100 0.6 1014547
20 апреля, вт
вт2000:00+11в61376100 0.9 1012758
03:00+10в81581100 1.1 1009705
06:00+9в101894100 7.0 1005771
09:00+10вюв112193100 13.9 10011299
12:00+12юв111888100 3.6 9991163
15:00+13ююв7128277 5.5 999790
18:00+14ююв11176397 1.1 10001357
21:00+10ююв11177477 1.2 10021104